Location: *
(28.3744°N, 81.5492°W)
Time: 03:58:27
(UTC+00:00)

Lacrosse 5 rocket - Pass Details

Date: 15 June 2025
Orbit: 419 x 513 km, 57.0° (Epoch: 11 July)

Event Time Altitude Azimuth Distance (km) Brightness Sun altitude
Exits shadow 08:37:48 14° 145° (SE) 1,466 3.4 -20.8°
Maximum altitude 08:39:15 17° 118° (ESE) 1,338 3.5 -20.6°
Drops below altitude 10° 08:41:50 10° 77° (ENE) 1,731 4.7 -20.1°
Sets 08:44:37 0° 57° (ENE) 2,624 6.3 -19.7°
